COSMOS 1891

Satellite information

Favourite Embed

Satellite Type and Status

PAYLOADIN ORBIT

Key statistics

Satellite COSMOS 1891 at a glance.

Uptime

13781

Days in orbit

Revolutions

≈ 13.7

Per day

Orbit

LEO

Low Earth Orbit

Inclination

82.9

Latest

Satellite identification and parameters

Extended collection of information and parameters for COSMOS 1891.

Object identification

Identified? True

Debris? False

Object name: COSMOS 1891

International designator: 1987-087A

Object number (NORAD): 18402

Object ID (CCSDS): 18402

Country: COMMONWEALTH OF INDEPENDENT STATES (CIS)

Current information (Y/N): Y

RCS size: LARGE

Orbital parameters

Period: 104.812 minutes

Inclination: 82.9226 deg

SMA: 7363.76 km

Apoapsis: 1023.382 km

Periapsis: 947.868 km

RAAN: 111.4142 deg

Eccentricy: 0.0051274

Argument of periapsis: 42.3644 deg

Mean anomaly: 318.1452 deg

Mean motion: 13.73894331 rev/day

Mean motion (dot): 0.00000048 rev/day2

B* drag term: 0.000034495 1/REarth

Two-line elements (TLE)

Creation date: July 6, 2025, 6:05 p.m.

Reference frame: TEME

Reference center: EARTH

Epoch: July 6, 2025, 8 a.m. UTC

TLE line 0: 0 COSMOS 1891

TLE line 1: 1 18402U 87087A 25187.33375854 .00000048 00000-0 34495-4 0 9997

TLE line 2: 2 18402 82.9226 111.4142 0051274 42.3644 318.1452 13.73894331891118

Live tracking on map

Real-time ground track for satellite COSMOS 1891.

In-orbit conjunctions

A list of the most updated potential collisions computed for object COSMOS 1891.

Target Orbit TCA Probability of collision Miss distance Type
COSMOS 1934 LEO 2024-11-14 03:17:26 0.0007673555 108.0 (m) PAYLOAD

Associated space launch

Navigation satellite providing location information for the Tsiklon-B navigation system

COSMOS 1891 was lifted into orbit during the mission ‘Kosmos-3M | Parus 60’, on board a Kosmos-3M space rocket.

The launch took place on Oct. 14, 1987, 12:35 p.m. from 133/3 (133L).

For more information about the launch, click the button.

Launch to space Kosmos-3M | Parus 60
Kosmos-3M | Parus 60

Agency: N/A

Status: Launch Successful

Launch date: Oct. 14, 1987, 12:35 p.m. UTC

Rocket: Kosmos-3M

Launch pad: 133/3 (133L)

Location: Plesetsk Cosmodrome, Russian Federation

...

Latest news about this satellite

There are no fresh news available about this satellite. Check back as we update our databases every day.


Newsletter sign-up

Weekly statistics, charts and insights to help you stay on top of the space industry.